CAPE
329 337 133 70 166 369 148 74 8 0 209 369 336 322 282 340 309 12 8 1 6 39 194 694 557 638 891 989 1096 1063 986 931 1008 1050 1172 1195 992 921 837 968 908 917 748
969 859 419 165 175 533 345 384 243 347 401 274 187 498 588 377 528 253 139 11 13 29 64 739 587 755 715 865 916 925 875 977 972 1090 1059 1053 1008 913 673 675 585 754 845
1682 1449 874 574 702 784 901 664 826 561 545 261 235 695 776 667 689 487 291 122 7 61 177 496 638 566 697 722 823 530 720 705 953 937 777 852 887 938 685 569 609 714 735
1678 1490 1020 749 730 869 906 695 541 775 555 600 676 818 999 772 797 547 517 374 39 33 11 29 128 301 550 671 911 549 781 737 739 812 974 840 873 799 547 466 395 439 521
1438 1511 972 1364 958 603 1289 1025 678 723 817 827 898 805 1040 653 820 804 649 591 359 335 110 4 3 1 388 755 610 903 942 859 884 712 775 681 382 476 437 221 318 271 269
1892 1787 1234 1281 1007 714 913 859 750 875 677 1005 899 849 675 836 889 881 862 758 702 684 549 174 39 29 48 428 726 736 892 878 731 628 518 492 364 326 240 80 69 74 107
1713 1757 1703 1505 1282 1037 778 983 1027 753 755 824 805 982 879 942 813 938 847 904 853 769 983 708 363 208 125 42 280 786 721 719 691 584 616 468 307 304 246 175 83 11 0
1622 1211 1445 1384 1402 1473 1598 1406 1141 958 784 1091 850 732 438 792 1043 941 1107 772 829 867 792 983 952 812 699 378 277 443 557 771 580 625 594 452 297 243 243 245 162 10 7
1656 1951 1318 1472 1580 1529 1296 1323 1084 1110 805 1272 1328 524 450 242 76 476 975 740 830 775 711 777 951 671 703 483 327 319 470 610 654 832 691 524 307 254 245 234 227 173 119
1752 1624 1772 1121 1779 1239 1494 1582 1416 1063 933 884 1220 1570 1117 412 54 0 11 499 1077 612 782 601 652 556 754 571 586 487 406 274 342 559 628 591 521 433 446 313 270 132 135
1911 1435 2007 1731 1318 1531 1573 1604 1596 1445 1555 980 1236 1176 1093 1429 787 240 215 440 0 447 953 511 492 723 716 536 470 841 664 433 279 198 235 359 413 283 366 363 356 342 260
1953 2106 2245 2027 1395 1617 1713 1635 1650 1892 1335 1755 2017 1377 1016 1049 982 954 783 635 223 0 182 674 748 369 569 358 344 604 434 421 360 248 234 307 394 403 365 238 109 48 7
1576 1503 2104 1665 1545 1228 1860 1733 1436 1688 2009 1597 1832 1585 1825 962 951 617 621 810 608 639 208 122 818 754 667 421 170 2 360 211 281 257 272 265 135 10 0 0 0 0 0
1176 279 1811 1634 1898 1659 1704 1447 1571 1574 1793 1684 1531 1728 1794 1808 1227 641 497 432 151 543 243 895 1058 1107 801 497 307 283 183 149 208 167 70 0 0 0 0 0 0 0 0
802 0 305 2036 2036 2204 1914 1824 1568 1510 948 1685 1485 1771 1512 1439 1107 568 377 411 215 97 359 446 792 936 1121 673 429 214 145 119 66 1 0 0 0 0 0 0 0 0 0
1663 1216 0 857 2311 2520 2552 2203 1941 1861 1103 950 1018 850 1266 1289 954 723 384 241 127 108 340 495 462 868 1065 955 554 362 206 33 0 0 0 0 0 0 0 0 0 0 0
1590 2162 1413 2204 2424 2431 2588 2804 2313 2250 1771 1622 1130 1439 1407 1033 863 1439 770 330 285 330 271 483 541 550 430 307 690 557 174 57 0 0 0 0 0 0 0 0 0 0 0
2007 2302 2712 2538 2986 2906 2719 2723 2622 2096 2200 2619 2407 1927 1728 1599 1465 1555 1645 1269 637 672 378 420 328 315 313 200 396 340 207 0 0 0 0 0 0 0 0 0 0 0 0
2328 2416 2722 2975 2940 2607 2553 2794 2578 2754 2648 2689 2487 2624 2510 2548 2127 2304 2172 1520 1212 729 641 328 115 252 344 200 247 319 351 198 0 0 0 0 0 0 0 0 0 0 0
2278 2597 2627 3153 3244 3124 3036 2789 2497 2669 2805 2595 2799 2856 2772 2546 2548 2647 2069 1934 1570 1178 806 288 89 97 103 185 136 35 143 254 48 0 0 0 0 0 0 0 0 0 0
2536 2517 2433 2644 2533 2030 1298 696 0 429 1687 2475 1911 1883 1876 1953 1924 1743 1991 1901 1675 1282 859 393 231 154 8 27 32 28 36 79 21 0 0 0 0 0 0 0 0 0 0
2317 2262 2586 2596 2179 1144 1 500 0 5 754 871 449 125 1729 1786 1756 1426 1077 1157 1101 986 765 530 312 73 17 2 27 65 7 20 14 4 0 7 0 0 0 0 0 0 0
2018 2232 1523 1864 1533 1157 655 657 690 1031 984 860 954 1543 1779 1718 1678 1503 1434 893 585 665 695 522 171 63 29 25 48 72 15 5 3 19 48 32 6 0 0 0 0 0 0
567 591 215 303 736 1302 1428 944 888 966 975 1080 1272 1359 1169 1088 1515 1250 787 368 468 364 88 105 214 101 50 60 75 39 10 2 27 25 58 26 18 8 0 0 0 0 0
1760 1461 1877 1611 1607 1639 1065 748 551 400 276 553 868 1002 1154 1027 884 750 696 429 422 268 5 59 112 54 24 4 3 0 0 0 30 16 29 0 16 1 0 0 0 0 0
1259 1625 1573 1279 1056 997 1183 709 576 523 307 280 512 577 929 1326 609 322 384 698 629 431 257 26 0 0 0 0 0 0 1 45 47 30 0 0 0 0 5 0 0 0 0
CIN
-185 -39 -79 -93 -46 -0 -4 -48 -118 -4 -34 -10 -5 -16 -11 -18 -13 -83 -151 -157 -138 -87 -37 -4 -7 -3 -0 -0 -0 -0 -0 -0 -0 -0 -0 -0 -2 -3 -6 -5 -5 -3 -9
-20 -27 -63 -92 -84 -3 -18 -17 -36 -17 -21 -11 -14 -8 -5 -11 -8 -25 -48 -137 -124 -92 -31 -0 -7 -7 -5 -0 -0 -0 -0 -0 -0 -0 -0 -0 -1 -2 -12 -8 -14 -7 -3
-4 -11 -31 -41 -29 -17 -5 -9 -3 -10 -20 -23 -10 -8 -0 -6 -12 -5 -34 -62 -106 -43 -15 -3 -0 -4 -3 -1 -0 -5 -0 -2 -0 -0 -5 -7 -5 -1 -7 -19 -18 -10 -7
-8 -3 -12 -25 -18 -12 -9 -19 -24 -3 -20 -7 -4 -10 -7 -8 -5 -7 -17 -17 -87 -70 -54 -35 -23 -22 -10 -6 -0 -4 -0 -2 -1 -0 -0 -1 -1 -2 -12 -31 -46 -33 -17
-8 -6 -18 -15 -20 -31 -3 -4 -17 -14 -22 -18 -9 -19 -10 -21 -9 -11 -17 -21 -24 -14 -60 -41 -51 -31 -4 -0 -1 -0 -0 -1 -0 -2 -1 -4 -12 -17 -22 -65 -44 -38 -35
-9 -3 -5 -13 -14 -25 -24 -27 -24 -12 -16 -19 -2 -16 -13 -13 -11 -10 -15 -11 -20 -15 -17 -54 -102 -124 -85 -2 -0 -1 -0 -0 -1 -2 -3 -5 -14 -30 -47 -86 -80 -95 -83
-7 -7 -4 -8 -9 -20 -35 -19 -24 -21 -18 -12 -8 -6 -13 -16 -20 -20 -29 -14 -40 -34 -11 -6 -56 -60 -74 -138 -30 -1 -2 -0 -0 -1 -1 -7 -25 -39 -61 -77 -92 -115 -0
-4 -14 -6 -11 -9 -7 -2 -7 -16 -11 -9 -5 -7 -6 -12 -8 -19 -26 -27 -31 -31 -33 -36 -19 -21 -15 -13 -55 -54 -23 -5 -0 -0 -0 -1 -9 -26 -36 -42 -42 -46 -22 -27
-9 -1 -2 -10 -12 -2 -7 -10 -19 -20 -8 -6 -13 -15 -18 -21 -19 -74 -19 -31 -33 -46 -45 -33 -30 -27 -7 -27 -50 -40 -11 -3 -1 -0 -0 -2 -9 -15 -21 -34 -44 -54 -60
-13 -3 -5 -12 -8 -20 -5 -8 -4 -16 -23 -12 -7 -7 -13 -66 -69 -0 -89 -51 -25 -37 -26 -38 -37 -38 -41 -27 -14 -19 -23 -21 -10 -1 -0 -0 -1 -3 -5 -19 -23 -64 -55
-9 -8 -6 -1 -15 -17 -4 -8 -10 -9 -16 -30 -15 -7 -11 -17 -46 -94 -37 -53 -0 -68 -10 -43 -62 -19 -10 -13 -19 -5 -14 -18 -19 -13 -6 -2 -1 -7 -2 -1 -4 -0 -0
-9 -3 -15 -9 -7 -8 -6 -4 -7 -6 -33 -18 -13 -18 -12 -7 -4 -9 -16 -23 -54 -0 -91 -28 -45 -72 -41 -26 -15 -2 -20 -26 -24 -23 -19 -3 -1 -1 -0 -7 -31 -22 -57
-8 -17 -9 -29 -13 -19 -2 -3 -8 -12 -11 -17 -11 -20 -15 -5 -3 -8 -9 -4 -8 -21 -69 -123 -47 -37 -14 -54 -56 -66 -23 -51 -46 -42 -22 -6 -22 -54 -0 -0 -0 -0 -0
-44 -7 -5 -30 -7 -16 -12 -5 -4 -12 -15 -13 -21 -17 -25 -16 -4 -9 -25 -24 -33 -8 -48 -13 -13 -9 -7 -39 -74 -76 -43 -80 -62 -59 -58 -10 -0 -0 -0 -0 -0 -0 -0
-62 -0 -140 -7 -13 -7 -20 -14 -18 -14 -41 -2 -12 -13 -30 -30 -23 -27 -49 -46 -59 -55 -24 -40 -6 -13 -18 -42 -54 -76 -81 -90 -80 -44 -0 -0 -0 -0 -0 -0 -0 -0 -0
-16 -105 -0 -97 -6 -8 -9 -12 -18 -5 -42 -60 -53 -64 -52 -45 -39 -28 -50 -64 -90 -73 -25 -18 -33 -35 -28 -20 -37 -37 -67 -119 -0 -0 -0 -0 -0 -0 -0 -0 -0 -0 -0
-21 -12 -63 -4 -8 -10 -8 -4 -15 -9 -17 -31 -53 -31 -41 -59 -70 -23 -30 -77 -63 -49 -34 -8 -13 -39 -48 -41 -16 -5 -45 -102 -0 -0 -0 -0 -0 -0 -0 -0 -0 -0 -0
-43 -19 -8 -15 -3 -3 -5 -5 -15 -22 -10 -4 -18 -23 -28 -45 -51 -42 -29 -27 -28 -18 -37 -13 -45 -70 -72 -73 -25 -21 -20 -0 -0 -0 -0 -0 -0 -0 -0 -0 -0 -0 -0
-56 -36 -25 -18 -11 -7 -2 -1 -5 -11 -10 -6 -13 -11 -15 -2 -16 -9 -9 -28 -28 -39 -39 -56 -74 -39 -56 -107 -55 -24 -7 -6 -0 -0 -0 -0 -0 -0 -0 -0 -0 -0 -0
-43 -30 -12 -1 -4 -3 -2 -2 -2 -2 -5 -8 -0 -1 -1 -2 -2 -3 -9 -4 -7 -6 -24 -103 -103 -83 -71 -63 -94 -94 -49 -10 -18 -0 -0 -0 -0 -0 -0 -0 -0 -0 -0
-13 -16 -11 -7 -5 -18 -76 -82 -0 -48 -2 -2 -4 -1 -0 -2 -12 -9 -3 -18 -5 -13 -13 -65 -48 -53 -115 -155 -155 -89 -72 -21 -47 -0 -0 -0 -0 -0 -0 -0 -0 -0 -0
-8 -6 -2 -9 -35 -109 -200 -156 -0 -35 -45 -19 -33 -146 -16 -12 -8 -19 -25 -8 -2 -2 -7 -37 -37 -105 -115 -192 -146 -91 -57 -14 -6 -37 -0 -140 -3 -0 -0 -0 -0 -0 -0
-63 -38 -89 -58 -52 -86 -84 -83 -51 -45 -42 -21 -13 -8 -14 -8 -15 -16 -17 -30 -67 -24 -13 -11 -39 -98 -122 -134 -148 -55 -65 -16 -20 -36 -25 -15 -25 -0 -0 -0 -0 -0 -0
-195 -149 -210 -166 -99 -58 -21 -101 -104 -76 -59 -50 -26 -21 -36 -34 -15 -31 -36 -55 -66 -87 -148 -15 -30 -61 -117 -88 -59 -79 -86 -33 -14 -50 -67 -8 -17 -21 -0 -0 -0 -0 -0
-12 -31 -5 -13 -10 -5 -49 -99 -117 -111 -127 -79 -48 -35 -24 -20 -16 -39 -27 -40 -70 -117 -229 -158 -74 -81 -116 -23 -118 -0 -0 -0 -8 -54 -25 -1 -28 -6 -0 -0 -0 -0 -0
-22 -4 -4 -17 -28 -35 -17 -45 -48 -45 -96 -106 -57 -27 -10 -12 -65 -113 -101 -27 -34 -58 -86 -144 -0 -0 -0 -0 -0 -0 -3 -22 -15 -11 -0 -0 -0 -0 -13 -4 -0 -0 -0
Wind_Speed
18 19 17 12 15 19 21 23 22 22 20 19 20 20 20 19 19 17 13 14 15 13 12 14 14 15 17 17 17 18 18 17 17 16 16 13 12 10 11 14 14 14 14
19 19 17 11 14 19 21 23 23 22 22 20 19 19 20 20 20 20 19 17 17 14 12 13 10 13 14 16 18 17 17 18 17 17 15 13 10 9 9 10 9 9 14
19 20 16 14 14 19 21 22 22 22 21 19 19 20 19 20 18 19 18 17 16 14 14 9 9 8 15 16 17 16 16 17 16 16 16 15 14 10 11 11 12 13 10
20 18 16 19 18 20 22 23 23 22 20 20 20 20 19 19 19 18 17 17 16 15 14 14 16 25 19 21 19 18 17 17 16 16 16 15 12 12 13 10 8 8 15
21 21 17 20 20 21 22 23 22 21 21 21 20 20 20 19 18 17 16 16 15 15 15 14 23 25 23 21 18 17 17 15 16 16 14 14 14 14 13 12 10 9 7
21 21 19 21 21 21 22 22 22 21 21 21 20 19 19 20 19 17 17 16 16 16 15 16 18 19 21 21 18 18 18 17 16 15 13 12 12 12 11 11 10 10 8
18 17 17 20 20 20 20 21 21 20 20 19 17 19 18 18 17 17 17 16 16 17 17 15 16 17 16 19 22 20 17 14 13 13 12 11 11 10 10 10 9 8 7
16 15 18 18 20 19 19 20 20 20 18 19 19 17 16 16 17 17 18 18 17 17 16 16 16 15 13 13 16 17 17 14 13 12 11 11 11 10 8 7 7 6 6
15 16 16 17 17 18 18 19 18 18 18 19 18 17 15 15 12 16 17 18 17 17 16 16 16 14 12 11 13 15 14 13 13 12 11 11 10 8 6 4 4 4 2
15 15 15 16 16 17 17 17 17 18 19 19 17 15 14 19 19 14 13 14 15 13 14 15 17 15 12 11 11 11 12 12 11 11 11 8 8 9 9 9 8 5 2
16 15 15 15 15 16 15 15 15 18 20 19 17 14 14 15 14 15 14 19 23 12 11 13 16 14 10 12 14 9 10 11 11 9 6 4 6 5 5 5 5 5 5
16 15 14 15 14 14 15 15 14 13 20 21 19 18 13 13 11 9 13 18 15 12 14 16 11 9 13 9 8 6 7 7 8 6 3 4 5 7 9 10 11 11 11
11 13 14 14 14 13 12 13 14 14 17 19 20 20 19 11 10 11 10 16 14 14 17 15 12 11 13 13 10 4 6 6 6 6 5 6 7 8 9 10 11 11 11
8 13 17 13 12 10 9 10 14 15 15 16 15 13 18 20 11 12 12 16 15 19 17 18 14 15 18 15 13 12 6 6 8 7 6 7 7 8 9 9 10 11 12
5 15 19 11 10 8 7 8 10 14 10 10 7 7 6 6 11 12 13 14 14 14 16 13 14 14 15 15 12 11 8 5 5 5 6 6 7 7 8 9 10 11 11
7 11 8 10 7 5 5 4 7 9 6 6 6 7 5 4 5 11 11 13 12 12 15 13 13 12 14 16 11 8 7 6 4 4 5 5 6 7 8 9 9 10 11
4 7 6 6 6 5 3 1 1 5 1 2 1 9 3 4 7 14 10 8 8 9 11 15 14 13 15 15 12 10 8 6 4 3 4 4 4 6 6 8 9 9 9
4 2 2 4 1 1 1 4 5 11 5 4 4 6 8 8 8 9 13 13 10 11 14 15 14 13 13 12 12 8 7 4 4 2 2 2 3 4 5 6 7 8 8
6 5 4 3 2 5 11 10 7 6 6 8 7 8 10 10 11 11 10 10 10 9 10 11 13 12 14 9 11 12 8 2 2 2 4 3 1 3 4 4 5 6 8
3 2 3 9 7 9 15 23 31 19 10 9 14 14 12 11 13 12 12 13 13 13 11 11 12 12 11 11 11 14 11 6 7 3 1 1 2 3 2 2 2 4 5
6 8 9 12 14 20 25 33 42 47 39 13 16 29 13 11 12 13 13 14 14 13 12 12 12 12 12 11 12 13 8 10 13 8 2 2 2 2 2 1 2 1 2
17 19 20 17 16 15 22 21 18 9 11 43 17 14 18 26 27 24 23 20 22 13 13 14 13 10 9 15 12 7 6 11 12 7 5 6 2 4 3 3 1 1 0
21 20 23 22 22 20 19 15 13 13 21 19 14 15 14 23 30 33 36 26 21 18 31 20 15 13 13 11 7 8 10 12 8 11 9 3 3 2 4 8 2 3 4
23 24 25 24 24 25 23 22 25 25 26 27 27 26 28 30 31 32 36 28 23 20 30 27 15 11 12 6 4 6 8 9 6 1 9 10 10 10 10 13 11 9 11
21 24 25 27 27 26 23 24 24 25 26 26 25 25 24 26 28 30 31 24 17 13 10 9 13 12 8 6 6 8 9 5 3 4 4 9 10 7 8 9 9 10 12
20 21 24 25 26 26 26 24 24 27 29 31 30 27 22 22 25 29 28 27 19 13 10 9 11 10 8 7 8 8 4 2 2 4 3 5 6 7 9 8 8 9 12
Wind_Direction
99 81 89 130 158 147 162 162 162 158 160 155 118 123 135 117 111 93 84 91 98 94 119 123 114 117 124 124 126 125 125 122 120 115 110 89 79 55 68 102 108 109 103
83 77 95 137 143 150 147 157 155 157 149 149 134 144 133 127 112 96 110 110 115 97 98 123 112 119 122 127 136 130 131 128 127 127 119 111 76 36 25 336 4 43 132
81 68 101 115 140 146 144 152 149 153 156 143 139 145 139 118 109 119 96 108 107 89 78 107 111 117 135 136 142 136 134 135 130 130 130 130 115 81 95 332 321 321 357
73 81 107 92 118 121 132 136 140 144 137 145 144 142 136 135 120 118 124 113 115 114 113 116 145 167 148 156 151 148 148 144 140 141 140 134 115 116 135 113 71 20 310
58 46 104 74 97 114 124 138 128 134 136 149 140 140 136 143 131 119 118 120 125 121 107 129 155 175 171 165 156 154 154 146 146 146 141 139 137 135 139 146 136 132 96
62 59 81 63 74 92 114 122 129 127 145 141 143 143 138 137 127 133 128 121 125 130 121 110 137 158 172 174 163 162 162 157 150 147 139 133 133 133 133 143 130 140 140
90 94 92 67 82 85 106 120 130 139 156 162 164 128 117 124 138 139 140 129 122 130 130 117 123 139 152 170 177 173 162 150 149 147 144 141 144 139 142 146 141 132 124
94 122 59 88 75 75 99 112 131 149 162 143 154 104 107 141 140 144 145 139 131 129 130 130 131 131 129 134 156 163 163 156 152 149 145 146 153 149 145 145 149 147 139
115 105 81 89 83 101 103 122 124 157 185 136 130 94 86 30 313 210 156 135 133 126 127 135 128 123 117 116 137 154 157 155 153 150 148 148 147 148 145 141 159 165 118
107 114 114 104 96 112 100 118 129 138 180 161 148 130 106 84 106 112 190 171 123 120 137 133 148 129 110 116 136 138 149 158 155 152 151 142 153 165 175 184 184 178 144
120 101 108 124 116 109 110 99 113 146 193 199 226 143 90 132 104 67 93 90 18 174 154 70 151 140 115 27 146 119 132 148 157 152 142 133 151 137 127 107 90 72 45
165 87 83 132 120 107 112 118 102 107 174 213 234 212 69 89 126 138 68 67 85 95 114 5 130 120 96 76 124 67 64 97 130 127 92 48 38 42 35 29 33 31 22
116 124 103 105 118 133 113 117 127 123 158 183 256 232 263 56 97 74 91 53 72 78 63 79 119 119 96 87 75 120 80 80 93 92 60 59 50 40 23 26 35 34 30
42 293 112 84 113 102 99 96 142 138 147 160 166 165 309 256 59 50 52 30 46 41 50 56 81 79 71 76 84 111 81 92 103 80 65 49 41 33 29 32 28 23 20
50 3 217 139 102 105 86 82 128 148 129 131 113 119 52 116 187 26 28 31 33 40 34 52 56 51 52 56 72 91 101 70 54 40 43 44 46 52 51 42 32 29 28
31 84 116 151 101 109 116 83 123 132 102 118 120 141 123 94 47 11 13 10 22 24 18 31 34 47 42 32 51 44 58 71 64 63 71 63 55 44 39 36 37 33 34
32 18 59 115 142 145 148 141 67 342 5 351 117 328 345 357 347 338 355 10 8 11 7 10 23 31 21 29 37 46 29 42 61 80 87 77 58 44 40 34 32 34 40
141 128 128 165 161 217 208 326 320 320 309 294 290 307 310 320 322 326 327 335 343 348 348 348 359 7 10 28 42 45 44 60 52 102 108 85 59 37 34 34 35 41 35
170 170 174 199 249 315 325 323 314 305 274 293 282 293 301 306 308 314 316 321 322 323 333 339 344 354 355 20 18 11 1 358 17 99 131 128 38 11 30 37 40 35 21
238 262 306 333 327 327 322 314 300 295 258 275 301 303 304 301 300 300 301 305 308 320 323 327 335 340 351 350 349 346 346 345 322 280 295 319 342 346 61 79 77 17 29
294 308 317 325 325 327 325 316 302 281 248 247 295 298 299 295 288 280 286 296 295 296 302 309 317 328 336 337 329 334 337 339 323 321 287 323 348 17 73 2 352 50 33
316 319 322 324 322 321 329 326 330 261 263 288 323 311 311 309 306 307 305 298 295 287 285 294 301 304 324 333 351 348 334 331 322 300 294 299 319 124 67 52 141 141 162
318 319 321 323 323 333 334 327 313 312 320 315 299 302 299 317 312 309 306 314 315 310 299 284 292 299 324 325 349 347 333 335 325 301 294 301 133 117 7 345 1 358 3
323 321 319 320 321 322 325 327 325 323 319 314 312 312 314 313 314 314 308 313 319 323 312 312 295 299 315 331 340 349 346 353 359 33 295 308 321 334 352 350 3 14 5
333 327 324 323 323 325 330 330 328 325 322 320 320 320 321 321 320 319 315 318 317 315 321 321 308 318 338 347 346 348 344 357 12 323 303 316 333 28 14 7 26 29 26
346 342 335 332 329 329 330 332 331 328 322 317 317 323 327 327 326 323 321 319 325 325 326 311 316 316 325 327 333 338 23 61 106 18 316 1 0 4 1 4 28 24 15